Location: Wishram
(45.6596°N, 120.9636°W)
Time: 03:41:41
(UTC+00:00)

Envisat - Visible Passes

Search period start: 20 May 2026 00:00
Search period end: 30 May 2026 00:00
Orbit: 761 x 762 km, 98.4° (Epoch: 19 May)

Date Brightness Start Highest point End Pass type
(mag) Time Alt. Az. Time Alt. Az. Time Alt. Az.
20 May 5.6 09:09:27 10° E 09:10:03 10° E 09:10:38 10° E visible
20 May 3.0 10:44:40 10° NNE 10:49:46 81° ESE 10:54:01 15° S visible
21 May 4.2 10:07:08 10° NNE 10:11:50 37° E 10:15:48 14° SSE visible
21 May 4.0 11:46:15 10° N 11:50:39 31° WNW 11:55:01 10° SW visible
22 May 5.2 09:30:21 10° NE 09:33:40 17° E 09:36:58 10° SE visible
22 May 3.1 11:08:01 10° N 11:13:02 64° WNW 11:17:42 12° SSW visible
23 May 3.4 10:30:12 10° NNE 10:35:14 60° E 10:39:27 14° S visible
24 May 4.6 09:52:52 10° NE 09:57:12 28° E 10:01:14 11° SSE visible
24 May 3.7 11:31:31 10° N 11:36:14 40° WNW 11:40:55 10° SW visible
25 May 5.4 09:16:46 10° ENE 09:18:58 13° E 09:21:09 10° ESE visible
25 May 3.0 10:53:27 10° NNE 10:58:33 85° WNW 11:03:08 13° SSW visible
26 May 3.9 10:15:48 10° NNE 10:20:40 44° E 10:24:54 13° SSE visible
27 May 5.0 09:38:46 10° NE 09:42:33 21° E 09:46:19 10° SE visible
27 May 3.3 11:16:51 10° N 11:21:48 53° WNW 11:26:41 10° SW visible
28 May 3.2 10:38:56 10° NNE 10:44:01 73° ESE 10:48:33 13° S visible
29 May 4.3 10:01:29 10° NNE 10:06:03 33° E 10:10:18 11° SSE visible
29 May 3.9 11:40:25 10° N 11:44:57 34° WNW 11:49:27 10° SW visible
